{"data":{"norad_id":46504,"intl_designator":"2020-068U","name":"NETSAT-4","alt_names":[],"object_type":"PAYLOAD","status":"ACTIVE","operator":null,"country":"GER","launch_date":"2020-09-28","launch_site_code":"PLMSC","launch_vehicle":null,"mission":null,"orbit_class":"UNKNOWN","rcs_meters":null,"size_class":null,"mass_kg":null,"dimensions":null,"purposes":["tech_demo"],"wikipedia_slug":null,"has_3d_model":false,"image_url":null,"decayed_at":null,"tle_current":{"epoch":"2026-05-24T23:31:02.019072Z","epoch_age_seconds":73224,"freshness":"FRESH","line1":"1 46504U 20068U   26144.97988448  .00016476  00000+0  37556-3 0  9991","line2":"2 46504  97.8613 151.3712 0006918  58.4513 301.7408 15.42986053312197","mean_motion":15.42986053,"eccentricity":0.0006918,"inclination_deg":97.8613,"raan_deg":151.3712,"arg_perigee_deg":58.4513,"mean_anomaly_deg":301.7408,"bstar":0.00037556,"rev_number":31219,"period_min":93.325535716945,"perigee_km":432.58717159867,"apogee_km":442.01701312687,"semimajor_km":6815.4390923628,"source":"CELESTRAK","updated_at":"2026-05-25T13:38:25.531005Z"}}}